Regional Weather Roundup
Issued by NWS Bismarck, ND

Home | Current Version | Previous Version | Text Only | Print | Product List | Glossary On
Versions: 1 2 3 4 5 6 7 8 9 10 11 12 13 14 15 16 17 18 19 20 21 22 23 24 25 26 27 28 29 30 31 32 33 34 35 36 37 38 39 40 41 42 43 44 45 46 47 48 49 50
000
ASUS43 KBIS 250102
RWRBIS

NWR BROADCAST TEXT
NATIONAL WEATHER SERVICE BISMARCK ND
700 PM CST FRI FEB 24 2017

NOTE: "FAIR" INDICATES FEW OR NO CLOUDS BELOW 12,000 FEET WITH NO
SIGNIFICANT WEATHER AND/OR OBSTRUCTIONS TO VISIBILITY.


CITY           SKY/WX    TMP DP  RH WIND       PRES   REMARKS
WILLISTON      MOCLDY    24  14  65 SW3       30.09S
MINOT          CLOUDY    26  19  74 CALM      30.08S
MINOT AFB      NOT AVBL
BISMARCK       CLOUDY    27  16  63 NW5       30.12S
DICKINSON      CLOUDY    21  15  78 SW3       30.04F
GARRISON         N/A     22  15  75 W3        30.09S
HETTINGER ARPT CLOUDY    24  17  74 E5        30.07S WCI  18
JAMESTOWN      FAIR      21  15  78 NW12      30.09R WCI   9
CARRINGTON     FAIR      19  16  86 NW6       30.12S WCI  11
HAZEN          MOCLDY   N/A N/A N/A SW5       30.12S
MANDAN         CLOUDY    23  16  74 W6        30.11F WCI  16
STANLEY        MOCLDY    21  19  93 SW6       30.08S WCI  14
$$

CITY           SKY/WX    TMP DP  RH WIND       PRES   REMARKS
GRAND FORKS    FAIR      17   9  70 N8        30.12F WCI   7
GRAND FORKS AF FAIR      16  10  76 VRB7      30.13R WCI   6
DEVILS LAKE    FAIR      18  13  80 NW6       30.10F WCI  10
FARGO          FAIR      20  12  71 N18       30.09S WCI   5
CAVALIER         N/A     16  10  79 N3        30.13F
GRAFTON        FAIR      16  12  86 N7        30.15S WCI   6
GWINNER        MOCLDY    23  18  80 N15       30.09R WCI  10
ROLLA          CLOUDY    16  10  79 N5        30.07F WCI   9
$$

CITY           SKY/WX    TMP DP  RH WIND       PRES   REMARKS
ABERDEEN       FAIR      22  14  71 N12       30.11R WCI  10
MOBRIDGE       FAIR      23  13  65 MISG      30.09S
BUFFALO          N/A     29  11  47 CALM      29.98S
RAPID CITY     CLOUDY    20  14  77 S5        30.06S WCI  13
GLASGOW        LGT SNOW  29  27  92 SW5       30.04S FOG
SIDNEY         CLOUDY    26  16  65 CALM      30.08F
WOLF POINT     CLOUDY    31  22  69 CALM      30.06S
GLENDIVE       FAIR      31  19  61 SW3       30.06S
MILES CITY     MOCLDY    31  19  61 CALM      30.04R
BAKER          CLOUDY    27  17  66 W3        30.04S
$$

CITY           SKY/WX    TMP DP  RH WIND       PRES   REMARKS
BILLINGS       CLOUDY    27  22  81 W3        30.01R
GREAT FALLS    FAIR      26  13  57 N5        30.02R
$$





USA.gov is the U.S. government's official web portal to all federal, state and local government web resources and services.